| time (UTC) | temp F | wind direction | speed knots | gust knots | rain 1hr in | rain 24hr in | rain mn in | humidity % | barometer mb |
| 20260508231428 | 75 | 274 | 3.5 | 7.0 | 0.00 | 0.00 | 0.00 | 43 | 1018.9 |
| 20260508230925 | 74 | 286 | 0.9 | 8.7 | 0.00 | 0.00 | 0.00 | 43 | 1018.8 |
| 20260508230421 | 75 | 169 | 4.3 | 11.3 | 0.00 | 0.00 | 0.00 | 43 | 1018.9 |
| 20260508225919 | 74 | 320 | 1.7 | 7.8 | 0.00 | 0.00 | 0.00 | 43 | 1019.0 |
| 20260508225415 | 74 | 319 | 7.8 | 8.7 | 0.00 | 0.00 | 0.00 | 44 | 1018.9 |
| 20260508224913 | 73 | 295 | 5.2 | 11.3 | 0.00 | 0.00 | 0.00 | 45 | 1019.0 |
| 20260508224410 | 74 | 290 | 4.3 | 5.2 | 0.00 | 0.00 | 0.00 | 45 | 1019.0 |
| 20260508223908 | 74 | 295 | 7.0 | 8.7 | 0.00 | 0.00 | 0.00 | 46 | 1019.1 |
| 20260508223405 | 73 | 325 | 3.5 | 8.7 | 0.00 | 0.00 | 0.00 | 48 | 1019.0 |
| 20260508222902 | 74 | 0 | 3.5 | 6.1 | 0.00 | 0.00 | 0.00 | 47 | 1019.2 |
| 20260508222359 | 73 | 298 | 4.3 | 11.3 | 0.00 | 0.00 | 0.00 | 47 | 1019.3 |
| 20260508221856 | 75 | 313 | 6.1 | 12.2 | 0.00 | 0.00 | 0.00 | 47 | 1019.2 |
| 20260508221351 | 75 | 292 | 6.1 | 7.0 | 0.00 | 0.00 | 0.00 | 46 | 1019.4 |
| 20260508220848 | 75 | 176 | 1.7 | 5.2 | 0.00 | 0.00 | 0.00 | 48 | 1019.4 |
| 20260508220344 | 73 | 258 | 3.5 | 7.8 | 0.00 | 0.00 | 0.00 | 48 | 1019.5 |
| 20260508215841 | 74 | 296 | 3.5 | 8.7 | 0.00 | 0.00 | 0.00 | 48 | 1019.3 |
| 20260508215338 | 73 | 313 | 5.2 | 9.6 | 0.00 | 0.00 | 0.00 | 50 | 1019.4 |
| 20260508214835 | 74 | 307 | 5.2 | 11.3 | 0.00 | 0.00 | 0.00 | 50 | 1019.2 |
| 20260508214332 | 73 | 311 | 7.0 | 11.3 | 0.00 | 0.00 | 0.00 | 52 | 1019.3 |
| 20260508213828 | 72 | 331 | 3.5 | 12.2 | 0.00 | 0.00 | 0.00 | 53 | 1019.7 |
| 20260508213325 | 73 | 320 | 2.6 | 7.0 | 0.00 | 0.00 | 0.00 | 53 | 1019.7 |
| 20260508212821 | 73 | 11 | 3.5 | 8.7 | 0.00 | 0.00 | 0.00 | 52 | 1019.5 |
| 20260508212318 | 73 | 305 | 6.1 | 7.8 | 0.00 | 0.00 | 0.00 | 53 | 1019.9 |
| 20260508211814 | 74 | 287 | 6.1 | 8.7 | 0.00 | 0.00 | 0.00 | 52 | 1019.7 |
| 20260508211309 | 73 | 318 | 7.0 | 9.6 | 0.00 | 0.00 | 0.00 | 52 | 1019.5 |
| 20260508210808 | 73 | 313 | 1.7 | 8.7 | 0.00 | 0.00 | 0.00 | 51 | 1019.9 |
| 20260508210304 | 73 | 291 | 5.2 | 7.8 | 0.00 | 0.00 | 0.00 | 52 | 1019.9 |
| 20260508205801 | 72 | 279 | 6.1 | 9.6 | 0.00 | 0.00 | 0.00 | 54 | 1020.2 |
| 20260508205257 | 74 | 244 | 2.6 | 6.1 | 0.00 | 0.00 | 0.00 | 51 | 1019.9 |
| 20260508204753 | 73 | 262 | 4.3 | 7.0 | 0.00 | 0.00 | 0.00 | 53 | 1020.0 |
| 20260508204250 | 73 | 283 | 3.5 | 7.0 | 0.00 | 0.00 | 0.00 | 53 | 1020.1 |
| 20260508203746 | 73 | 227 | 6.1 | 8.7 | 0.00 | 0.00 | 0.00 | 52 | 1020.0 |
| 20260508203243 | 73 | 293 | 4.3 | 9.6 | 0.00 | 0.00 | 0.00 | 55 | 1020.0 |
| 20260508202738 | 74 | 281 | 4.3 | 7.0 | 0.00 | 0.00 | 0.00 | 53 | 1020.4 |
| 20260508202236 | 73 | 217 | 3.5 | 12.2 | 0.00 | 0.00 | 0.00 | 54 | 1020.3 |
| 20260508201733 | 72 | 319 | 3.5 | 6.1 | 0.00 | 0.00 | 0.00 | 54 | 1019.9 |
| 20260508201229 | 72 | 343 | 6.1 | 8.7 | 0.00 | 0.00 | 0.00 | 55 | 1020.2 |
| 20260508200726 | 73 | 285 | 5.2 | 11.3 | 0.00 | 0.00 | 0.00 | 54 | 1019.8 |
| 20260508200222 | 73 | 322 | 4.3 | 9.6 | 0.00 | 0.00 | 0.00 | 53 | 1020.0 |
| 20260508195719 | 72 | 311 | 6.1 | 7.0 | 0.00 | 0.00 | 0.00 | 53 | 1020.2 |
| 20260508195215 | 72 | 331 | 7.0 | 7.8 | 0.00 | 0.00 | 0.00 | 52 | 1019.9 |
| 20260508194712 | 71 | 315 | 10.4 | 13.9 | 0.00 | 0.00 | 0.00 | 53 | 1020.0 |
| 20260508194209 | 72 | 316 | 4.3 | 9.6 | 0.00 | 0.00 | 0.00 | 52 | 1020.0 |
| 20260508193706 | 73 | 324 | 0.9 | 7.8 | 0.00 | 0.00 | 0.00 | 51 | 1020.2 |
| 20260508193203 | 73 | 350 | 3.5 | 7.8 | 0.00 | 0.00 | 0.00 | 50 | 1020.0 |
| 20260508192659 | 73 | 328 | 6.1 | 8.7 | 0.00 | 0.00 | 0.00 | 49 | 1020.1 |
| 20260508192156 | 72 | 303 | 4.3 | 7.0 | 0.00 | 0.00 | 0.00 | 51 | 1020.2 |
| 20260508191653 | 73 | 269 | 5.2 | 7.8 | 0.00 | 0.00 | 0.00 | 53 | 1020.1 |
| 20260508191150 | 72 | 229 | 2.6 | 7.8 | 0.00 | 0.00 | 0.00 | 55 | 1020.2 |
| 20260508190648 | 72 | 322 | 7.0 | 8.7 | 0.00 | 0.00 | 0.00 | 53 | 1020.6 |
| 20260508190144 | 72 | 225 | 2.6 | 5.2 | 0.00 | 0.00 | 0.00 | 53 | 1020.6 |
| 20260508185641 | 73 | 250 | 3.5 | 7.0 | 0.00 | 0.00 | 0.00 | 53 | 1020.4 |
| 20260508185138 | 72 | 262 | 3.5 | 5.2 | 0.00 | 0.00 | 0.00 | 55 | 1020.3 |
| 20260508184635 | 72 | 280 | 3.5 | 6.1 | 0.00 | 0.00 | 0.00 | 57 | 1020.6 |
| 20260508184132 | 72 | 228 | 0.9 | 7.0 | 0.00 | 0.00 | 0.00 | 55 | 1020.6 |
| 20260508183629 | 72 | 291 | 1.7 | 4.3 | 0.00 | 0.00 | 0.00 | 55 | 1020.4 |
| 20260508183125 | 73 | 316 | 4.3 | 7.0 | 0.00 | 0.00 | 0.00 | 53 | 1020.4 |
| 20260508182621 | 72 | 31 | 4.3 | 11.3 | 0.00 | 0.00 | 0.00 | 53 | 1020.4 |
| 20260508182118 | 73 | 287 | 4.3 | 5.2 | 0.00 | 0.00 | 0.00 | 51 | 1020.7 |
| 20260508181613 | 72 | 249 | 4.3 | 6.1 | 0.00 | 0.00 | 0.00 | 46 | 1020.8 |
| 20260508181111 | 71 | 353 | 4.3 | 7.8 | 0.00 | 0.00 | 0.00 | 56 | 1020.8 |
| 20260508180608 | 70 | 323 | 4.3 | 7.8 | 0.00 | 0.00 | 0.00 | 53 | 1020.9 |
| 20260508180104 | 70 | 322 | 5.2 | 6.1 | 0.00 | 0.00 | 0.00 | 56 | 1020.4 |
| 20260508175601 | 70 | 1 | 3.5 | 12.2 | 0.00 | 0.00 | 0.00 | 62 | 1020.8 |
| 20260508175058 | 69 | 351 | 7.0 | 8.7 | 0.00 | 0.00 | 0.00 | 61 | 1020.8 |
| 20260508174555 | 70 | 325 | 6.1 | 8.7 | 0.00 | 0.00 | 0.00 | 62 | 1020.9 |
| 20260508174052 | 69 | 316 | 8.7 | 9.6 | 0.00 | 0.00 | 0.00 | 62 | 1020.9 |
| 20260508173549 | 69 | 23 | 5.2 | 7.8 | 0.00 | 0.00 | 0.00 | 59 | 1020.8 |
| 20260508173045 | 70 | 114 | 1.7 | 7.0 | 0.00 | 0.00 | 0.00 | 63 | 1020.8 |
| 20260508172542 | 69 | 356 | 2.6 | 7.8 | 0.00 | 0.00 | 0.00 | 63 | 1021.0 |
| 20260508172039 | 69 | 303 | 3.5 | 6.1 | 0.00 | 0.00 | 0.00 | 62 | 1020.9 |
| 20260508171535 | 69 | 338 | 2.6 | 5.2 | 0.00 | 0.00 | 0.00 | 59 | 1020.8 |
| 20260508171032 | 68 | 272 | 1.7 | 5.2 | 0.00 | 0.00 | 0.00 | 60 | 1020.8 |
| 20260508170529 | 69 | 17 | 2.6 | 7.0 | 0.00 | 0.00 | 0.00 | 60 | 1020.7 |
| 20260508170026 | 68 | 34 | 1.7 | 4.3 | 0.00 | 0.00 | 0.00 | 60 | 1021.0 |
| 20260508165523 | 68 | 336 | 2.6 | 4.3 | 0.00 | 0.00 | 0.00 | 61 | 1020.9 |
| 20260508165020 | 68 | 17 | 2.6 | 5.2 | 0.00 | 0.00 | 0.00 | 60 | 1020.9 |
| 20260508164517 | 68 | 355 | 1.7 | 6.1 | 0.00 | 0.00 | 0.00 | 58 | 1020.9 |
| 20260508164014 | 68 | 285 | 3.5 | 5.2 | 0.00 | 0.00 | 0.00 | 59 | 1021.1 |
| 20260508163511 | 68 | 9 | 3.5 | 6.1 | 0.00 | 0.00 | 0.00 | 61 | 1021.1 |
| 20260508163007 | 68 | 342 | 3.5 | 6.1 | 0.00 | 0.00 | 0.00 | 60 | 1021.0 |
| 20260508162504 | 68 | 5 | 0.9 | 2.6 | 0.00 | 0.00 | 0.00 | 65 | 1021.2 |
| 20260508162001 | 67 | 314 | 1.7 | 2.6 | 0.00 | 0.00 | 0.00 | 61 | 1021.1 |
| 20260508161458 | 68 | 218 | 4.3 | 7.0 | 0.00 | 0.00 | 0.00 | 65 | 1021.0 |
| 20260508160955 | 67 | 210 | 0.0 | 1.7 | 0.00 | 0.00 | 0.00 | 63 | 1021.2 |
| 20260508160454 | 66 | 242 | 4.3 | 7.0 | 0.00 | 0.00 | 0.00 | 69 | 1021.1 |
| 20260508155950 | 66 | 260 | 3.5 | 7.0 | 0.00 | 0.00 | 0.00 | 67 | 1021.0 |
| 20260508155447 | 66 | 319 | 2.6 | 4.3 | 0.00 | 0.00 | 0.00 | 67 | 1021.0 |
| 20260508154944 | 66 | 240 | 2.6 | 5.2 | 0.00 | 0.00 | 0.00 | 69 | 1021.2 |
| 20260508154442 | 65 | 302 | 2.6 | 4.3 | 0.00 | 0.00 | 0.00 | 69 | 1021.0 |
| 20260508153938 | 64 | 235 | 1.7 | 1.7 | 0.00 | 0.00 | 0.00 | 69 | 1021.1 |
| 20260508153435 | 65 | 300 | 3.5 | 5.2 | 0.00 | 0.00 | 0.00 | 70 | 1021.1 |
| 20260508152931 | 64 | 271 | 3.5 | 5.2 | 0.00 | 0.00 | 0.00 | 72 | 1021.2 |
| 20260508152428 | 64 | 237 | 4.3 | 7.0 | 0.00 | 0.00 | 0.00 | 72 | 1021.0 |
| 20260508151925 | 63 | 222 | 3.5 | 7.0 | 0.00 | 0.00 | 0.00 | 73 | 1021.1 |
| 20260508151422 | 63 | 196 | 4.3 | 8.7 | 0.00 | 0.00 | 0.00 | 74 | 1021.0 |
| 20260508150918 | 63 | 209 | 6.1 | 11.3 | 0.00 | 0.00 | 0.00 | 74 | 1021.1 |
| 20260508150415 | 63 | 259 | 5.2 | 8.7 | 0.00 | 0.00 | 0.00 | 74 | 1021.1 |
| 20260508145910 | 63 | 236 | 3.5 | 6.1 | 0.00 | 0.00 | 0.00 | 74 | 1021.1 |
| 20260508145407 | 63 | 236 | 2.6 | 7.0 | 0.00 | 0.00 | 0.00 | 74 | 1021.2 |
| 20260508144904 | 62 | 172 | 5.2 | 7.8 | 0.00 | 0.00 | 0.00 | 74 | 1021.2 |
| 20260508144402 | 62 | 246 | 6.1 | 7.0 | 0.00 | 0.00 | 0.00 | 74 | 1021.0 |
| 20260508143859 | 62 | 258 | 3.5 | 7.0 | 0.00 | 0.00 | 0.00 | 75 | 1021.1 |
| 20260508143356 | 62 | 240 | 7.0 | 8.7 | 0.00 | 0.00 | 0.00 | 76 | 1021.3 |
| 20260508142853 | 62 | 243 | 4.3 | 8.7 | 0.00 | 0.00 | 0.00 | 76 | 1021.2 |
| 20260508142350 | 61 | 246 | 2.6 | 7.0 | 0.00 | 0.00 | 0.00 | 76 | 1021.1 |
| 20260508141846 | 61 | 244 | 2.6 | 5.2 | 0.00 | 0.00 | 0.00 | 77 | 1021.0 |
| 20260508141343 | 60 | 215 | 3.5 | 7.0 | 0.00 | 0.00 | 0.00 | 77 | 1021.0 |
| 20260508140841 | 60 | 227 | 2.6 | 5.2 | 0.00 | 0.00 | 0.00 | 77 | 1021.1 |
| 20260508140338 | 60 | 219 | 3.5 | 5.2 | 0.00 | 0.00 | 0.00 | 77 | 1020.8 |
| 20260508135833 | 60 | 258 | 1.7 | 2.6 | 0.00 | 0.00 | 0.00 | 77 | 1020.8 |
| 20260508135330 | 60 | 334 | 0.0 | 1.7 | 0.00 | 0.00 | 0.00 | 78 | 1020.9 |
| 20260508134826 | 59 | 245 | 0.0 | 0.0 | 0.00 | 0.00 | 0.00 | 78 | 1020.9 |
| 20260508134323 | 59 | 290 | 0.9 | 1.7 | 0.00 | 0.00 | 0.00 | 79 | 1020.9 |
| 20260508133819 | 59 | 282 | 0.0 | 2.6 | 0.00 | 0.00 | 0.00 | 79 | 1020.8 |
| 20260508133317 | 58 | 314 | 0.0 | 1.7 | 0.00 | 0.00 | 0.00 | 80 | 1020.8 |
| 20260508132814 | 58 | 241 | 0.0 | 0.9 | 0.00 | 0.00 | 0.00 | 81 | 1020.7 |
| 20260508132312 | 57 | 299 | 0.0 | 0.9 | 0.00 | 0.00 | 0.00 | 81 | 1020.8 |
| 20260508131808 | 57 | 303 | 0.0 | 0.0 | 0.00 | 0.00 | 0.00 | 81 | 1020.8 |
| 20260508131304 | 57 | 319 | 0.0 | 1.7 | 0.00 | 0.00 | 0.00 | 81 | 1020.6 |
| 20260508130800 | 57 | 247 | 0.0 | 0.9 | 0.00 | 0.00 | 0.00 | 81 | 1020.6 |
| 20260508130258 | 57 | 233 | 0.0 | 0.0 | 0.00 | 0.00 | 0.00 | 81 | 1020.8 |
| 20260508125754 | 57 | 295 | 0.0 | 1.7 | 0.00 | 0.00 | 0.00 | 81 | 1020.8 |
| 20260508125250 | 57 | 319 | 2.6 | 2.6 | 0.00 | 0.00 | 0.00 | 81 | 1020.9 |
| 20260508124749 | 57 | 294 | 0.0 | 1.7 | 0.00 | 0.00 | 0.00 | 81 | 1020.4 |
| 20260508124245 | 57 | 250 | 1.7 | 1.7 | 0.00 | 0.00 | 0.00 | 81 | 1020.6 |
| 20260508123743 | 57 | 229 | 0.0 | 0.0 | 0.00 | 0.00 | 0.00 | 81 | 1020.3 |
| 20260508123241 | 57 | 241 | 1.7 | 1.7 | 0.00 | 0.00 | 0.00 | 80 | 1020.4 |
| 20260508122737 | 58 | 236 | 0.0 | 0.0 | 0.00 | 0.00 | 0.00 | 79 | 1020.3 |
| 20260508122234 | 58 | 276 | 0.9 | 2.6 | 0.00 | 0.00 | 0.00 | 79 | 1020.2 |
| 20260508121731 | 58 | 287 | 1.7 | 4.3 | 0.00 | 0.00 | 0.00 | 79 | 1020.6 |
| 20260508121230 | 58 | 299 | 0.0 | 0.0 | 0.00 | 0.00 | 0.00 | 79 | 1020.2 |
| 20260508120727 | 58 | 319 | 0.0 | 0.9 | 0.00 | 0.00 | 0.00 | 78 | 1020.4 |
| 20260508120225 | 58 | 283 | 2.6 | 4.3 | 0.00 | 0.00 | 0.00 | 79 | 1020.6 |
| 20260508115722 | 58 | 299 | 0.0 | 0.0 | 0.00 | 0.00 | 0.00 | 78 | 1020.4 |
| 20260508115220 | 58 | 236 | 1.7 | 1.7 | 0.00 | 0.00 | 0.00 | 78 | 1020.6 |
| 20260508114716 | 58 | 233 | 0.0 | 2.6 | 0.00 | 0.00 | 0.00 | 79 | 1020.4 |
| 20260508114213 | 58 | 277 | 0.9 | 1.7 | 0.00 | 0.00 | 0.00 | 79 | 1020.0 |
| 20260508113709 | 58 | 313 | 0.0 | 1.7 | 0.00 | 0.00 | 0.00 | 79 | 1020.1 |
| 20260508113208 | 58 | 293 | 1.7 | 2.6 | 0.00 | 0.00 | 0.00 | 79 | 1020.2 |
| 20260508112703 | 58 | 259 | 1.7 | 1.7 | 0.00 | 0.00 | 0.00 | 80 | 1020.3 |
| 20260508112201 | 58 | 287 | 0.0 | 0.9 | 0.00 | 0.00 | 0.00 | 80 | 1020.2 |
| 20260508111657 | 58 | 287 | 0.9 | 2.6 | 0.00 | 0.00 | 0.00 | 80 | 1020.1 |
| 20260508111155 | 58 | 331 | 1.7 | 1.7 | 0.00 | 0.00 | 0.00 | 79 | 1020.2 |
| 20260508110652 | 58 | 221 | 0.9 | 1.7 | 0.00 | 0.00 | 0.00 | 79 | 1020.0 |
| 20260508110149 | 58 | 293 | 1.7 | 2.6 | 0.00 | 0.00 | 0.00 | 79 | 1020.2 |
| 20260508105643 | 58 | 298 | 2.6 | 2.6 | 0.00 | 0.00 | 0.00 | 79 | 1020.1 |
| 20260508105141 | 58 | 260 | 0.0 | 0.0 | 0.00 | 0.00 | 0.00 | 78 | 1020.0 |
| 20260508104638 | 59 | 286 | 0.0 | 2.6 | 0.00 | 0.00 | 0.00 | 78 | 1020.2 |
| 20260508104135 | 59 | 273 | 1.7 | 4.3 | 0.00 | 0.00 | 0.00 | 78 | 1020.2 |
| 20260508103632 | 59 | 312 | 0.0 | 0.9 | 0.00 | 0.00 | 0.00 | 78 | 1020.1 |
| 20260508103129 | 59 | 312 | 0.0 | 0.9 | 0.00 | 0.00 | 0.00 | 78 | 1020.4 |
| 20260508102626 | 59 | 315 | 0.0 | 1.7 | 0.00 | 0.00 | 0.00 | 77 | 1020.3 |
| 20260508102124 | 59 | 278 | 0.9 | 2.6 | 0.00 | 0.00 | 0.00 | 77 | 1020.3 |
| 20260508101621 | 59 | 246 | 0.0 | 1.7 | 0.00 | 0.00 | 0.00 | 77 | 1020.7 |
| 20260508101118 | 59 | 288 | 1.7 | 1.7 | 0.00 | 0.00 | 0.00 | 77 | 1020.3 |
| 20260508100616 | 59 | 309 | 0.0 | 0.9 | 0.00 | 0.00 | 0.00 | 76 | 1020.2 |
| 20260508100114 | 59 | 253 | 0.9 | 0.9 | 0.00 | 0.00 | 0.00 | 76 | 1020.2 |
| 20260508095610 | 59 | 238 | 0.0 | 0.0 | 0.00 | 0.00 | 0.00 | 75 | 1020.6 |
| 20260508095107 | 59 | 294 | 0.0 | 0.0 | 0.00 | 0.00 | 0.00 | 75 | 1020.4 |
| 20260508094604 | 59 | 318 | 0.0 | 0.0 | 0.00 | 0.00 | 0.00 | 75 | 1020.3 |
| 20260508094101 | 59 | 320 | 0.0 | 0.0 | 0.00 | 0.00 | 0.00 | 74 | 1020.3 |
| 20260508093558 | 59 | 278 | 0.9 | 1.7 | 0.00 | 0.00 | 0.00 | 74 | 1020.7 |
| 20260508093056 | 59 | 286 | 0.0 | 0.0 | 0.00 | 0.00 | 0.00 | 74 | 1020.3 |
| 20260508092553 | 59 | 239 | 0.0 | 0.0 | 0.00 | 0.00 | 0.00 | 73 | 1020.4 |
| 20260508092052 | 59 | 256 | 0.0 | 0.0 | 0.00 | 0.00 | 0.00 | 73 | 1020.3 |
| 20260508091549 | 59 | 244 | 0.0 | 0.0 | 0.00 | 0.00 | 0.00 | 73 | 1020.6 |
| 20260508091045 | 59 | 289 | 0.0 | 0.0 | 0.00 | 0.00 | 0.00 | 73 | 1020.4 |
| 20260508090543 | 59 | 254 | 0.0 | 0.0 | 0.00 | 0.00 | 0.00 | 73 | 1020.3 |
| 20260508090040 | 59 | 295 | 0.0 | 0.0 | 0.00 | 0.00 | 0.00 | 73 | 1020.4 |
| 20260508085536 | 59 | 245 | 0.9 | 0.9 | 0.00 | 0.00 | 0.00 | 72 | 1020.3 |
| 20260508085033 | 60 | 280 | 0.0 | 0.0 | 0.00 | 0.00 | 0.00 | 71 | 1020.3 |
| 20260508084530 | 60 | 247 | 1.7 | 2.6 | 0.00 | 0.00 | 0.00 | 71 | 1020.6 |
| 20260508084028 | 60 | 286 | 0.0 | 0.0 | 0.00 | 0.00 | 0.00 | 71 | 1020.7 |
| 20260508083525 | 59 | 231 | 0.0 | 0.9 | 0.00 | 0.00 | 0.00 | 72 | 1020.7 |
| 20260508083021 | 59 | 276 | 0.0 | 0.0 | 0.00 | 0.00 | 0.00 | 71 | 1020.8 |
| 20260508082517 | 60 | 240 | 0.0 | 0.0 | 0.00 | 0.00 | 0.00 | 71 | 1020.6 |
| 20260508082015 | 59 | 261 | 0.0 | 0.0 | 0.00 | 0.00 | 0.00 | 72 | 1020.8 |
| 20260508081512 | 59 | 214 | 0.0 | 0.0 | 0.00 | 0.00 | 0.00 | 72 | 1020.8 |
| 20260508081008 | 59 | 329 | 0.0 | 0.0 | 0.00 | 0.00 | 0.00 | 72 | 1021.0 |
| 20260508080506 | 59 | 321 | 0.0 | 0.0 | 0.00 | 0.00 | 0.00 | 72 | 1021.0 |
| 20260508080003 | 60 | 323 | 0.0 | 0.0 | 0.00 | 0.00 | 0.00 | 70 | 1021.0 |
| 20260508075459 | 60 | 221 | 0.0 | 0.0 | 0.00 | 0.00 | 0.00 | 70 | 1020.9 |
| 20260508074957 | 61 | 287 | 0.0 | 0.9 | 0.00 | 0.00 | 0.00 | 68 | 1021.1 |
| 20260508074455 | 61 | 239 | 1.7 | 1.7 | 0.00 | 0.00 | 0.00 | 68 | 1021.0 |
| 20260508073951 | 61 | 352 | 0.0 | 1.7 | 0.00 | 0.00 | 0.00 | 68 | 1020.8 |
| 20260508073449 | 61 | 224 | 1.7 | 2.6 | 0.00 | 0.00 | 0.00 | 68 | 1020.9 |
| 20260508072946 | 61 | 249 | 0.0 | 0.0 | 0.00 | 0.00 | 0.00 | 68 | 1021.0 |
| 20260508072442 | 61 | 251 | 0.9 | 0.9 | 0.00 | 0.00 | 0.00 | 68 | 1020.9 |
| 20260508071939 | 61 | 305 | 0.9 | 4.3 | 0.00 | 0.00 | 0.00 | 67 | 1021.0 |
| 20260508071437 | 61 | 314 | 0.9 | 2.6 | 0.00 | 0.00 | 0.00 | 68 | 1020.9 |
| 20260508070935 | 61 | 244 | 0.9 | 2.6 | 0.00 | 0.00 | 0.00 | 69 | 1020.7 |
| 20260508070432 | 61 | 244 | 0.0 | 0.9 | 0.00 | 0.00 | 0.00 | 69 | 1020.7 |
| 20260508065930 | 61 | 275 | 0.0 | 0.9 | 0.00 | 0.00 | 0.00 | 68 | 1020.8 |
| 20260508065428 | 62 | 284 | 1.7 | 1.7 | 0.00 | 0.00 | 0.00 | 67 | 1021.0 |
| 20260508064926 | 61 | 247 | 0.9 | 0.9 | 0.00 | 0.00 | 0.00 | 67 | 1020.8 |
| 20260508064423 | 61 | 199 | 0.0 | 1.7 | 0.00 | 0.00 | 0.00 | 68 | 1020.9 |
| 20260508063920 | 61 | 179 | 0.0 | 0.0 | 0.00 | 0.00 | 0.00 | 68 | 1020.9 |
| 20260508063418 | 61 | 192 | 0.0 | 1.7 | 0.00 | 0.00 | 0.00 | 68 | 1021.0 |
| 20260508062915 | 61 | 234 | 0.9 | 1.7 | 0.00 | 0.00 | 0.00 | 67 | 1020.7 |
| 20260508062413 | 61 | 298 | 0.9 | 1.7 | 0.00 | 0.00 | 0.00 | 67 | 1020.8 |
| 20260508061909 | 62 | 194 | 0.0 | 0.0 | 0.00 | 0.00 | 0.00 | 67 | 1020.8 |
| 20260508061407 | 62 | 245 | 1.7 | 1.7 | 0.00 | 0.00 | 0.00 | 66 | 1020.7 |
| 20260508060903 | 63 | 275 | 0.0 | 2.6 | 0.00 | 0.00 | 0.00 | 65 | 1020.8 |
| 20260508060401 | 62 | 321 | 2.6 | 4.3 | 0.00 | 0.00 | 0.00 | 66 | 1020.8 |
| 20260508055901 | 62 | 273 | 0.0 | 1.7 | 0.00 | 0.00 | 0.00 | 66 | 1020.6 |
| 20260508055359 | 62 | 267 | 0.9 | 0.9 | 0.00 | 0.00 | 0.00 | 66 | 1020.9 |
| 20260508054855 | 62 | 306 | 0.0 | 0.9 | 0.00 | 0.00 | 0.00 | 66 | 1020.8 |
| 20260508054353 | 62 | 290 | 0.9 | 2.6 | 0.00 | 0.00 | 0.00 | 66 | 1020.7 |
| 20260508053849 | 63 | 300 | 2.6 | 4.3 | 0.00 | 0.00 | 0.00 | 65 | 1020.7 |
| 20260508053347 | 62 | 269 | 1.7 | 4.3 | 0.00 | 0.00 | 0.00 | 65 | 1020.8 |
| 20260508052844 | 62 | 286 | 0.9 | 2.6 | 0.00 | 0.00 | 0.00 | 66 | 1020.9 |
| 20260508052342 | 62 | 236 | 2.6 | 2.6 | 0.00 | 0.00 | 0.00 | 67 | 1020.9 |
| 20260508051837 | 62 | 257 | 0.9 | 1.7 | 0.00 | 0.00 | 0.00 | 66 | 1020.8 |
| 20260508051333 | 62 | 294 | 0.9 | 5.2 | 0.00 | 0.00 | 0.00 | 66 | 1021.0 |
| 20260508050829 | 62 | 285 | 2.6 | 2.6 | 0.00 | 0.00 | 0.00 | 66 | 1021.0 |
| 20260508050327 | 62 | 263 | 0.0 | 0.9 | 0.00 | 0.00 | 0.00 | 66 | 1020.8 |
| 20260508045822 | 63 | 231 | 1.7 | 4.3 | 0.00 | 0.00 | 0.00 | 65 | 1020.7 |
| 20260508045320 | 62 | 283 | 4.3 | 6.1 | 0.00 | 0.00 | 0.00 | 66 | 1020.9 |
| 20260508044818 | 62 | 292 | 0.9 | 1.7 | 0.00 | 0.00 | 0.00 | 66 | 1020.7 |
| 20260508044314 | 62 | 253 | 2.6 | 5.2 | 0.00 | 0.00 | 0.00 | 66 | 1020.8 |
| 20260508043810 | 62 | 248 | 0.0 | 2.6 | 0.00 | 0.00 | 0.00 | 66 | 1020.9 |
| 20260508043308 | 62 | 298 | 0.9 | 2.6 | 0.00 | 0.00 | 0.00 | 66 | 1021.1 |
| 20260508042804 | 63 | 239 | 1.7 | 1.7 | 0.00 | 0.00 | 0.00 | 66 | 1021.0 |
| 20260508042306 | 63 | 257 | 0.9 | 1.7 | 0.00 | 0.00 | 0.00 | 65 | 1020.8 |
| 20260508041758 | 63 | 245 | 1.7 | 4.3 | 0.00 | 0.00 | 0.00 | 65 | 1020.7 |
| 20260508041255 | 63 | 252 | 2.6 | 2.6 | 0.00 | 0.00 | 0.00 | 66 | 1020.6 |
| 20260508040751 | 63 | 235 | 1.7 | 2.6 | 0.00 | 0.00 | 0.00 | 66 | 1020.2 |
| 20260508040249 | 62 | 250 | 2.6 | 2.6 | 0.00 | 0.00 | 0.00 | 66 | 1020.6 |
| 20260508035746 | 63 | 231 | 2.6 | 2.6 | 0.00 | 0.00 | 0.00 | 66 | 1020.6 |
| 20260508035243 | 63 | 211 | 0.9 | 2.6 | 0.00 | 0.00 | 0.00 | 65 | 1020.4 |
| 20260508034739 | 63 | 248 | 1.7 | 2.6 | 0.00 | 0.00 | 0.00 | 66 | 1020.4 |
| 20260508034237 | 63 | 224 | 1.7 | 4.3 | 0.00 | 0.00 | 0.00 | 65 | 1020.4 |
| 20260508033734 | 63 | 239 | 2.6 | 4.3 | 0.00 | 0.00 | 0.00 | 65 | 1020.2 |
| 20260508033232 | 63 | 230 | 2.6 | 4.3 | 0.00 | 0.00 | 0.00 | 64 | 1020.2 |
| 20260508032730 | 63 | 228 | 0.9 | 1.7 | 0.00 | 0.00 | 0.00 | 65 | 1020.2 |
| 20260508032226 | 64 | 230 | 4.3 | 5.2 | 0.00 | 0.00 | 0.00 | 63 | 1019.9 |
| 20260508031723 | 64 | 277 | 1.7 | 1.7 | 0.00 | 0.00 | 0.00 | 63 | 1020.1 |
| 20260508031219 | 64 | 295 | 0.9 | 2.6 | 0.00 | 0.00 | 0.00 | 63 | 1020.0 |
| 20260508030716 | 65 | 242 | 2.6 | 2.6 | 0.00 | 0.00 | 0.00 | 62 | 1019.9 |
| 20260508030214 | 65 | 266 | 2.6 | 2.6 | 0.00 | 0.00 | 0.00 | 62 | 1019.7 |
| 20260508025710 | 65 | 234 | 2.6 | 4.3 | 0.00 | 0.00 | 0.00 | 62 | 1020.0 |
| 20260508025207 | 65 | 276 | 3.5 | 5.2 | 0.00 | 0.00 | 0.00 | 61 | 1019.9 |
| 20260508024703 | 66 | 228 | 3.5 | 4.3 | 0.00 | 0.00 | 0.00 | 61 | 1019.8 |
| 20260508024200 | 66 | 226 | 4.3 | 6.1 | 0.00 | 0.00 | 0.00 | 61 | 1019.8 |
| 20260508023656 | 66 | 268 | 0.0 | 0.0 | 0.00 | 0.00 | 0.00 | 60 | 1019.8 |
| 20260508023154 | 66 | 227 | 1.7 | 4.3 | 0.00 | 0.00 | 0.00 | 60 | 1019.9 |
| 20260508022649 | 66 | 271 | 0.9 | 2.6 | 0.00 | 0.00 | 0.00 | 59 | 1019.7 |
| 20260508022147 | 67 | 268 | 3.5 | 6.1 | 0.00 | 0.00 | 0.00 | 59 | 1019.8 |
| 20260508021643 | 67 | 237 | 2.6 | 7.0 | 0.00 | 0.00 | 0.00 | 59 | 1019.7 |
| 20260508021138 | 67 | 228 | 1.7 | 4.3 | 0.00 | 0.00 | 0.00 | 57 | 1019.7 |
| 20260508020636 | 68 | 238 | 6.1 | 7.0 | 0.00 | 0.00 | 0.00 | 57 | 1019.7 |
| 20260508020134 | 68 | 221 | 5.2 | 11.3 | 0.00 | 0.00 | 0.00 | 56 | 1019.8 |
| 20260508015631 | 69 | 238 | 4.3 | 8.7 | 0.00 | 0.00 | 0.00 | 55 | 1019.4 |
| 20260508015128 | 69 | 248 | 1.7 | 2.6 | 0.00 | 0.00 | 0.00 | 55 | 1019.3 |
| 20260508014624 | 70 | 287 | 1.7 | 2.6 | 0.00 | 0.00 | 0.00 | 54 | 1019.5 |
| 20260508014121 | 70 | 261 | 5.2 | 7.8 | 0.00 | 0.00 | 0.00 | 53 | 1019.5 |
| 20260508013617 | 71 | 237 | 4.3 | 7.0 | 0.00 | 0.00 | 0.00 | 52 | 1019.4 |
| 20260508013114 | 71 | 252 | 2.6 | 7.8 | 0.00 | 0.00 | 0.00 | 52 | 1019.1 |
| 20260508012611 | 71 | 213 | 2.6 | 5.2 | 0.00 | 0.00 | 0.00 | 51 | 1019.3 |
| 20260508012108 | 71 | 232 | 6.1 | 7.0 | 0.00 | 0.00 | 0.00 | 51 | 1019.4 |
| 20260508011607 | 72 | 304 | 6.1 | 7.0 | 0.00 | 0.00 | 0.00 | 51 | 1019.4 |
| 20260508011104 | 71 | 233 | 2.6 | 7.0 | 0.00 | 0.00 | 0.00 | 50 | 1019.4 |
| 20260508010600 | 72 | 243 | 2.6 | 6.1 | 0.00 | 0.00 | 0.00 | 49 | 1019.4 |
| 20260508010058 | 72 | 227 | 4.3 | 8.7 | 0.00 | 0.00 | 0.00 | 48 | 1019.3 |
| 20260508005554 | 71 | 223 | 6.1 | 9.6 | 0.00 | 0.00 | 0.00 | 48 | 1019.3 |
| 20260508005051 | 72 | 255 | 5.2 | 7.0 | 0.00 | 0.00 | 0.00 | 49 | 1019.1 |
| 20260508004547 | 72 | 304 | 6.1 | 8.7 | 0.00 | 0.00 | 0.00 | 48 | 1019.3 |
| 20260508004044 | 72 | 194 | 5.2 | 9.6 | 0.00 | 0.00 | 0.00 | 48 | 1019.2 |
| 20260508003540 | 72 | 225 | 5.2 | 8.7 | 0.00 | 0.00 | 0.00 | 48 | 1019.2 |
| 20260508003038 | 73 | 239 | 6.1 | 9.6 | 0.00 | 0.00 | 0.00 | 47 | 1019.3 |
| 20260508002534 | 73 | 269 | 3.5 | 6.1 | 0.00 | 0.00 | 0.00 | 47 | 1019.2 |
| 20260508002032 | 72 | 235 | 7.8 | 9.6 | 0.00 | 0.00 | 0.00 | 48 | 1019.3 |
| 20260508001527 | 73 | 244 | 5.2 | 6.1 | 0.00 | 0.00 | 0.00 | 49 | 1019.7 |
| 20260508001023 | 73 | 270 | 3.5 | 7.0 | 0.00 | 0.00 | 0.00 | 48 | 1019.5 |
| 20260508000519 | 73 | 239 | 6.1 | 8.7 | 0.00 | 0.00 | 0.00 | 47 | 1019.4 |
| 20260508000017 | 74 | 255 | 5.2 | 8.7 | 0.00 | 0.00 | 0.00 | 48 | 1019.3 |
| 20260507235514 | 74 | 256 | 4.3 | 7.8 | 0.00 | 0.00 | 0.00 | 45 | 1019.2 |
| 20260507235011 | 73 | 277 | 3.5 | 6.1 | 0.00 | 0.00 | 0.00 | 47 | 1019.2 |
| 20260507234507 | 73 | 287 | 9.6 | 13.0 | 0.00 | 0.00 | 0.00 | 47 | 1019.2 |
| 20260507234004 | 73 | 301 | 2.6 | 7.0 | 0.00 | 0.00 | 0.00 | 47 | 1019.1 |
| 20260507233500 | 73 | 320 | 7.0 | 9.6 | 0.00 | 0.00 | 0.00 | 46 | 1019.1 |
| 20260507233000 | 73 | 316 | 3.5 | 9.6 | 0.00 | 0.00 | 0.00 | 46 | 1019.3 |
| 20260507232455 | 73 | 309 | 7.0 | 8.7 | 0.00 | 0.00 | 0.00 | 47 | 1019.2 |
| 20260507231953 | 75 | 305 | 7.8 | 9.6 | 0.00 | 0.00 | 0.00 | 46 | 1019.2 |